| time (UTC) | temp C | wind direction | speed KPH | gust KPH | rain 1hr cm | rain 24hr cm | rain mn cm | humidity % | barometer mb |
| 20260510220506 | 22 | 328 | 11.3 | 24.1 | 0.00 | 0.00 | 0.00 | 50 | 1016.5 |
| 20260510220009 | 22 | 312 | 8.0 | 14.5 | 0.00 | 0.00 | 0.00 | 47 | 1016.7 |
| 20260510215505 | 22 | 296 | 4.8 | 16.1 | 0.00 | 0.00 | 0.00 | 43 | 1016.6 |
| 20260510215004 | 22 | 269 | 11.3 | 16.1 | 0.00 | 0.00 | 0.00 | 42 | 1016.6 |
| 20260510214504 | 22 | 273 | 4.8 | 17.7 | 0.00 | 0.00 | 0.00 | 44 | 1016.6 |
| 20260510214009 | 22 | 240 | 11.3 | 19.3 | 0.00 | 0.00 | 0.00 | 41 | 1016.5 |
| 20260510213506 | 23 | 249 | 11.3 | 20.9 | 0.00 | 0.00 | 0.00 | 40 | 1016.4 |
| 20260510213004 | 23 | 250 | 8.0 | 20.9 | 0.00 | 0.00 | 0.00 | 39 | 1016.4 |
| 20260510212503 | 24 | 304 | 8.0 | 17.7 | 0.00 | 0.00 | 0.00 | 39 | 1016.3 |
| 20260510212003 | 23 | 269 | 4.8 | 11.3 | 0.00 | 0.00 | 0.00 | 39 | 1016.4 |
| 20260510211506 | 23 | 231 | 4.8 | 19.3 | 0.00 | 0.00 | 0.00 | 40 | 1016.3 |
| 20260510211006 | 23 | 355 | 6.4 | 19.3 | 0.00 | 0.00 | 0.00 | 39 | 1016.3 |
| 20260510210502 | 23 | 258 | 9.7 | 22.5 | 0.00 | 0.00 | 0.00 | 40 | 1016.4 |
| 20260510210002 | 23 | 270 | 11.3 | 16.1 | 0.00 | 0.00 | 0.00 | 40 | 1016.3 |
| 20260510205502 | 23 | 201 | 8.0 | 16.1 | 0.00 | 0.00 | 0.00 | 39 | 1016.4 |
| 20260510205001 | 23 | 302 | 6.4 | 14.5 | 0.00 | 0.00 | 0.00 | 40 | 1016.4 |
| 20260510204600 | 23 | 319 | 3.2 | 9.7 | 0.00 | 0.00 | 0.00 | 40 | 1016.5 |
| 20260510204103 | 23 | 316 | 6.4 | 14.5 | 0.00 | 0.00 | 0.00 | 41 | 1016.5 |
| 20260510203559 | 22 | 319 | 6.4 | 17.7 | 0.00 | 0.00 | 0.00 | 43 | 1016.5 |
| 20260510203058 | 22 | 287 | 9.7 | 20.9 | 0.00 | 0.00 | 0.00 | 42 | 1016.5 |
| 20260510202559 | 23 | 238 | 11.3 | 20.9 | 0.00 | 0.00 | 0.00 | 39 | 1016.7 |
| 20260510202058 | 23 | 261 | 9.7 | 17.7 | 0.00 | 0.00 | 0.00 | 39 | 1016.7 |
| 20260510201609 | 23 | 236 | 8.0 | 16.1 | 0.00 | 0.00 | 0.00 | 40 | 1016.7 |
| 20260510201058 | 23 | 272 | 8.0 | 17.7 | 0.00 | 0.00 | 0.00 | 39 | 1016.8 |
| 20260510200558 | 23 | 293 | 11.3 | 17.7 | 0.00 | 0.00 | 0.00 | 38 | 1016.8 |
| 20260510200058 | 23 | 240 | 12.9 | 16.1 | 0.00 | 0.00 | 0.00 | 38 | 1016.8 |
| 20260510195558 | 23 | 219 | 9.7 | 19.3 | 0.00 | 0.00 | 0.00 | 37 | 1016.9 |
| 20260510195057 | 23 | 249 | 9.7 | 17.7 | 0.00 | 0.00 | 0.00 | 38 | 1016.8 |
| 20260510194557 | 23 | 198 | 4.8 | 14.5 | 0.00 | 0.00 | 0.00 | 38 | 1016.8 |
| 20260510194056 | 23 | 229 | 3.2 | 19.3 | 0.00 | 0.00 | 0.00 | 39 | 1016.9 |
| 20260510193558 | 23 | 207 | 8.0 | 20.9 | 0.00 | 0.00 | 0.00 | 38 | 1016.9 |
| 20260510193105 | 23 | 242 | 9.7 | 24.1 | 0.00 | 0.00 | 0.00 | 40 | 1017.0 |
| 20260510192555 | 23 | 236 | 12.9 | 24.1 | 0.00 | 0.00 | 0.00 | 37 | 1017.0 |
| 20260510192055 | 23 | 235 | 3.2 | 19.3 | 0.00 | 0.00 | 0.00 | 39 | 1017.0 |
| 20260510191602 | 23 | 292 | 8.0 | 22.5 | 0.00 | 0.00 | 0.00 | 36 | 1017.2 |
| 20260510191055 | 23 | 258 | 11.3 | 22.5 | 0.00 | 0.00 | 0.00 | 40 | 1017.2 |
| 20260510190655 | 23 | 270 | 8.0 | 20.9 | 0.00 | 0.00 | 0.00 | 35 | 1017.3 |
| 20260510190054 | 22 | 252 | 8.0 | 25.7 | 0.00 | 0.00 | 0.00 | 35 | 1017.3 |
| 20260510185552 | 22 | 332 | 9.7 | 25.7 | 0.00 | 0.00 | 0.00 | 37 | 1017.2 |
| 20260510185052 | 23 | 284 | 14.5 | 22.5 | 0.00 | 0.00 | 0.00 | 35 | 1017.1 |
| 20260510184551 | 23 | 340 | 8.0 | 24.1 | 0.00 | 0.00 | 0.00 | 38 | 1017.1 |
| 20260510184054 | 23 | 254 | 11.3 | 24.1 | 0.00 | 0.00 | 0.00 | 41 | 1017.2 |
| 20260510183550 | 23 | 270 | 11.3 | 19.3 | 0.00 | 0.00 | 0.00 | 38 | 1017.2 |
| 20260510183050 | 23 | 263 | 6.4 | 24.1 | 0.00 | 0.00 | 0.00 | 38 | 1017.3 |
| 20260510182548 | 23 | 331 | 11.3 | 24.1 | 0.00 | 0.00 | 0.00 | 37 | 1017.2 |
| 20260510182048 | 22 | 194 | 6.4 | 22.5 | 0.00 | 0.00 | 0.00 | 36 | 1017.3 |
| 20260510181551 | 23 | 236 | 11.3 | 22.5 | 0.00 | 0.00 | 0.00 | 36 | 1017.2 |
| 20260510181048 | 22 | 330 | 3.2 | 24.1 | 0.00 | 0.00 | 0.00 | 43 | 1017.3 |
| 20260510180547 | 23 | 319 | 12.9 | 24.1 | 0.00 | 0.00 | 0.00 | 37 | 1017.3 |
| 20260510180048 | 22 | 234 | 4.8 | 22.5 | 0.00 | 0.00 | 0.00 | 40 | 1017.3 |
| 20260510175545 | 22 | 301 | 9.7 | 22.5 | 0.00 | 0.00 | 0.00 | 39 | 1017.3 |
| 20260510175045 | 22 | 268 | 8.0 | 20.9 | 0.00 | 0.00 | 0.00 | 37 | 1017.4 |
| 20260510174543 | 22 | 277 | 11.3 | 20.9 | 0.00 | 0.00 | 0.00 | 41 | 1017.4 |
| 20260510174042 | 22 | 279 | 11.3 | 17.7 | 0.00 | 0.00 | 0.00 | 40 | 1017.4 |
| 20260510173542 | 22 | 261 | 8.0 | 17.7 | 0.00 | 0.00 | 0.00 | 38 | 1017.3 |
| 20260510173041 | 22 | 294 | 8.0 | 22.5 | 0.00 | 0.00 | 0.00 | 42 | 1017.3 |
| 20260510172540 | 22 | 278 | 16.1 | 22.5 | 0.00 | 0.00 | 0.00 | 39 | 1017.3 |
| 20260510172039 | 22 | 244 | 4.8 | 27.4 | 0.00 | 0.00 | 0.00 | 41 | 1017.4 |
| 20260510171539 | 22 | 338 | 6.4 | 27.4 | 0.00 | 0.00 | 0.00 | 43 | 1017.4 |
| 20260510171039 | 22 | 360 | 12.9 | 22.5 | 0.00 | 0.00 | 0.00 | 41 | 1017.4 |
| 20260510170538 | 22 | 186 | 4.8 | 17.7 | 0.00 | 0.00 | 0.00 | 42 | 1017.3 |
| 20260510170042 | 22 | 242 | 6.4 | 17.7 | 0.00 | 0.00 | 0.00 | 44 | 1017.4 |
| 20260510165534 | 22 | 74 | 1.6 | 11.3 | 0.00 | 0.00 | 0.00 | 45 | 1017.4 |
| 20260510165037 | 21 | 327 | 3.2 | 12.9 | 0.00 | 0.00 | 0.00 | 46 | 1017.3 |
| 20260510164543 | 21 | 279 | 1.6 | 16.1 | 0.00 | 0.00 | 0.00 | 44 | 1017.5 |
| 20260510164031 | 21 | 349 | 3.2 | 17.7 | 0.00 | 0.00 | 0.00 | 47 | 1017.6 |
| 20260510163531 | 21 | 233 | 11.3 | 17.7 | 0.00 | 0.00 | 0.00 | 45 | 1017.6 |
| 20260510163030 | 21 | 271 | 9.7 | 22.5 | 0.00 | 0.00 | 0.00 | 47 | 1017.6 |
| 20260510162528 | 21 | 280 | 6.4 | 22.5 | 0.00 | 0.00 | 0.00 | 46 | 1017.7 |
| 20260510162028 | 20 | 287 | 11.3 | 17.7 | 0.00 | 0.00 | 0.00 | 48 | 1017.7 |
| 20260510161527 | 20 | 259 | 6.4 | 17.7 | 0.00 | 0.00 | 0.00 | 47 | 1017.8 |
| 20260510161026 | 20 | 242 | 8.0 | 17.7 | 0.00 | 0.00 | 0.00 | 50 | 1017.9 |
| 20260510160525 | 20 | 227 | 3.2 | 14.5 | 0.00 | 0.00 | 0.00 | 51 | 1018.0 |
| 20260510160129 | 20 | 326 | 8.0 | 19.3 | 0.00 | 0.00 | 0.00 | 50 | 1017.9 |
| 20260510155523 | 20 | 238 | 9.7 | 19.3 | 0.00 | 0.00 | 0.00 | 51 | 1017.9 |
| 20260510155023 | 20 | 265 | 11.3 | 17.7 | 0.00 | 0.00 | 0.00 | 50 | 1017.8 |
| 20260510154541 | 20 | 248 | 6.4 | 17.7 | 0.00 | 0.00 | 0.00 | 53 | 1017.8 |
| 20260510154026 | 20 | 311 | 4.8 | 16.1 | 0.00 | 0.00 | 0.00 | 51 | 1017.9 |
| 20260510153521 | 20 | 9 | 9.7 | 16.1 | 0.00 | 0.00 | 0.00 | 52 | 1017.9 |
| 20260510153024 | 20 | 41 | 4.8 | 14.5 | 0.00 | 0.00 | 0.00 | 55 | 1018.0 |
| 20260510152519 | 20 | 328 | 4.8 | 17.7 | 0.00 | 0.00 | 0.00 | 55 | 1018.0 |
| 20260510152018 | 19 | 248 | 6.4 | 17.7 | 0.00 | 0.00 | 0.00 | 55 | 1018.0 |
| 20260510151517 | 20 | 223 | 4.8 | 16.1 | 0.00 | 0.00 | 0.00 | 53 | 1018.2 |
| 20260510151017 | 19 | 285 | 8.0 | 16.1 | 0.00 | 0.00 | 0.00 | 53 | 1018.2 |
| 20260510150518 | 19 | 311 | 9.7 | 16.1 | 0.00 | 0.00 | 0.00 | 55 | 1018.4 |
| 20260510150016 | 19 | 11 | 4.8 | 20.9 | 0.00 | 0.00 | 0.00 | 57 | 1018.3 |
| 20260510145515 | 19 | 282 | 9.7 | 20.9 | 0.00 | 0.00 | 0.00 | 57 | 1018.3 |
| 20260510145012 | 19 | 339 | 14.5 | 20.9 | 0.00 | 0.00 | 0.00 | 56 | 1018.3 |
| 20260510144520 | 19 | 285 | 9.7 | 27.4 | 0.00 | 0.00 | 0.00 | 55 | 1018.3 |
| 20260510144015 | 19 | 316 | 14.5 | 27.4 | 0.00 | 0.00 | 0.00 | 56 | 1018.2 |
| 20260510143511 | 19 | 278 | 6.4 | 20.9 | 0.00 | 0.00 | 0.00 | 56 | 1018.1 |
| 20260510143010 | 18 | 309 | 3.2 | 20.9 | 0.00 | 0.00 | 0.00 | 58 | 1018.1 |
| 20260510142510 | 18 | 34 | 8.0 | 14.5 | 0.00 | 0.00 | 0.00 | 56 | 1018.2 |
| 20260510142009 | 18 | 260 | 1.6 | 17.7 | 0.00 | 0.00 | 0.00 | 58 | 1018.1 |
| 20260510141508 | 18 | 282 | 8.0 | 17.7 | 0.00 | 0.00 | 0.00 | 57 | 1018.2 |
| 20260510141007 | 18 | 335 | 8.0 | 14.5 | 0.00 | 0.00 | 0.00 | 58 | 1018.2 |
| 20260510140506 | 18 | 320 | 8.0 | 14.5 | 0.00 | 0.00 | 0.00 | 61 | 1018.2 |
| 20260510140005 | 17 | 308 | 9.7 | 14.5 | 0.00 | 0.00 | 0.00 | 60 | 1018.2 |
| 20260510135503 | 17 | 264 | 8.0 | 16.1 | 0.00 | 0.00 | 0.00 | 63 | 1018.2 |
| 20260510135004 | 17 | 284 | 4.8 | 14.5 | 0.00 | 0.00 | 0.00 | 62 | 1018.3 |
| 20260510134502 | 17 | 306 | 6.4 | 12.9 | 0.00 | 0.00 | 0.00 | 64 | 1018.3 |
| 20260510134059 | 17 | 303 | 6.4 | 12.9 | 0.00 | 0.00 | 0.00 | 65 | 1018.4 |
| 20260510133558 | 16 | 284 | 8.0 | 12.9 | 0.00 | 0.00 | 0.00 | 66 | 1018.4 |
| 20260510133057 | 16 | 267 | 8.0 | 14.5 | 0.00 | 0.00 | 0.00 | 68 | 1018.4 |
| 20260510132555 | 16 | 277 | 6.4 | 16.1 | 0.00 | 0.00 | 0.00 | 68 | 1018.4 |
| 20260510132054 | 15 | 261 | 8.0 | 16.1 | 0.00 | 0.00 | 0.00 | 68 | 1018.4 |
| 20260510131554 | 15 | 294 | 9.7 | 16.1 | 0.00 | 0.00 | 0.00 | 69 | 1018.4 |
| 20260510131052 | 15 | 271 | 6.4 | 16.1 | 0.00 | 0.00 | 0.00 | 70 | 1018.2 |
| 20260510130551 | 15 | 279 | 8.0 | 14.5 | 0.00 | 0.00 | 0.00 | 71 | 1018.2 |
| 20260510130051 | 15 | 317 | 6.4 | 16.1 | 0.00 | 0.00 | 0.00 | 73 | 1018.2 |
| 20260510125547 | 15 | 286 | 6.4 | 16.1 | 0.00 | 0.00 | 0.00 | 75 | 1018.3 |
| 20260510125047 | 15 | 279 | 8.0 | 14.5 | 0.00 | 0.00 | 0.00 | 74 | 1018.2 |
| 20260510124545 | 14 | 287 | 8.0 | 16.1 | 0.00 | 0.00 | 0.00 | 74 | 1018.1 |
| 20260510124044 | 14 | 282 | 8.0 | 16.1 | 0.00 | 0.00 | 0.00 | 76 | 1018.0 |
| 20260510123543 | 13 | 293 | 6.4 | 16.1 | 0.00 | 0.00 | 0.00 | 78 | 1017.9 |
| 20260510123046 | 13 | 254 | 6.4 | 19.3 | 0.00 | 0.00 | 0.00 | 79 | 1017.8 |
| 20260510122540 | 13 | 259 | 12.9 | 19.3 | 0.00 | 0.00 | 0.00 | 79 | 1017.7 |
| 20260510122038 | 12 | 261 | 9.7 | 17.7 | 0.00 | 0.00 | 0.00 | 81 | 1017.6 |
| 20260510121539 | 12 | 281 | 11.3 | 17.7 | 0.00 | 0.00 | 0.00 | 82 | 1017.7 |
| 20260510121036 | 12 | 257 | 9.7 | 16.1 | 0.00 | 0.00 | 0.00 | 82 | 1017.6 |
| 20260510120534 | 12 | 295 | 6.4 | 16.1 | 0.00 | 0.00 | 0.00 | 84 | 1017.6 |
| 20260510120035 | 11 | 252 | 6.4 | 19.3 | 0.00 | 0.00 | 0.00 | 84 | 1017.7 |
| 20260510115532 | 11 | 244 | 11.3 | 19.3 | 0.00 | 0.00 | 0.00 | 84 | 1017.7 |
| 20260510115032 | 11 | 253 | 6.4 | 17.7 | 0.00 | 0.00 | 0.00 | 85 | 1017.5 |
| 20260510114536 | 11 | 239 | 8.0 | 17.7 | 0.00 | 0.00 | 0.00 | 85 | 1017.3 |
| 20260510114034 | 11 | 282 | 9.7 | 17.7 | 0.00 | 0.00 | 0.00 | 85 | 1017.4 |
| 20260510113533 | 11 | 266 | 12.9 | 19.3 | 0.00 | 0.00 | 0.00 | 85 | 1017.2 |
| 20260510113029 | 11 | 250 | 9.7 | 19.3 | 0.00 | 0.00 | 0.00 | 86 | 1017.1 |
| 20260510112530 | 11 | 263 | 8.0 | 14.5 | 0.00 | 0.00 | 0.00 | 86 | 1017.0 |
| 20260510112028 | 10 | 269 | 9.7 | 14.5 | 0.00 | 0.00 | 0.00 | 87 | 1016.9 |
| 20260510111528 | 10 | 265 | 3.2 | 12.9 | 0.00 | 0.00 | 0.00 | 88 | 1016.8 |
| 20260510111026 | 10 | 261 | 6.4 | 12.9 | 0.00 | 0.00 | 0.00 | 88 | 1016.7 |
| 20260510110526 | 10 | 272 | 4.8 | 12.9 | 0.00 | 0.00 | 0.00 | 89 | 1016.8 |
| 20260510110026 | 10 | 243 | 4.8 | 12.9 | 0.00 | 0.00 | 0.00 | 90 | 1016.6 |
| 20260510105525 | 9 | 252 | 6.4 | 12.9 | 0.00 | 0.00 | 0.00 | 91 | 1016.5 |
| 20260510105024 | 9 | 271 | 8.0 | 12.9 | 0.00 | 0.00 | 0.00 | 91 | 1016.5 |
| 20260510104524 | 8 | 259 | 4.8 | 11.3 | 0.00 | 0.00 | 0.00 | 90 | 1016.5 |
| 20260510104023 | 8 | 262 | 4.8 | 11.3 | 0.00 | 0.00 | 0.00 | 91 | 1016.5 |
| 20260510103523 | 8 | 263 | 6.4 | 11.3 | 0.00 | 0.00 | 0.00 | 90 | 1016.4 |
| 20260510103021 | 8 | 263 | 3.2 | 9.7 | 0.00 | 0.00 | 0.00 | 89 | 1016.2 |
| 20260510102523 | 9 | 262 | 3.2 | 9.7 | 0.00 | 0.00 | 0.00 | 89 | 1016.3 |
| 20260510102022 | 9 | 261 | 3.2 | 9.7 | 0.00 | 0.00 | 0.00 | 87 | 1016.2 |
| 20260510101519 | 10 | 261 | 3.2 | 11.3 | 0.00 | 0.00 | 0.00 | 88 | 1016.1 |
| 20260510101018 | 10 | 263 | 6.4 | 11.3 | 0.00 | 0.00 | 0.00 | 88 | 1016.0 |
| 20260510100518 | 10 | 262 | 3.2 | 12.9 | 0.00 | 0.00 | 0.00 | 87 | 1015.8 |
| 20260510100017 | 10 | 263 | 4.8 | 12.9 | 0.00 | 0.00 | 0.00 | 87 | 1015.8 |
| 20260510095517 | 10 | 271 | 3.2 | 9.7 | 0.00 | 0.00 | 0.00 | 87 | 1015.8 |
| 20260510095016 | 10 | 271 | 4.8 | 12.9 | 0.00 | 0.00 | 0.00 | 87 | 1015.7 |
| 20260510094517 | 10 | 266 | 6.4 | 12.9 | 0.00 | 0.00 | 0.00 | 87 | 1015.7 |
| 20260510094015 | 10 | 260 | 3.2 | 6.4 | 0.00 | 0.00 | 0.00 | 87 | 1015.8 |
| 20260510093515 | 10 | 260 | 3.2 | 6.4 | 0.00 | 0.00 | 0.00 | 86 | 1015.7 |
| 20260510093020 | 11 | 260 | 3.2 | 9.7 | 0.00 | 0.00 | 0.00 | 86 | 1015.8 |
| 20260510092514 | 11 | 268 | 3.2 | 9.7 | 0.00 | 0.00 | 0.00 | 86 | 1015.7 |
| 20260510092012 | 11 | 263 | 1.6 | 9.7 | 0.00 | 0.00 | 0.00 | 85 | 1015.6 |
| 20260510091516 | 11 | 262 | 3.2 | 9.7 | 0.00 | 0.00 | 0.00 | 86 | 1015.5 |
| 20260510091017 | 11 | 262 | 6.4 | 12.9 | 0.00 | 0.00 | 0.00 | 86 | 1015.4 |
| 20260510090512 | 11 | 261 | 6.4 | 12.9 | 0.00 | 0.00 | 0.00 | 86 | 1015.4 |
| 20260510090011 | 11 | 267 | 4.8 | 12.9 | 0.00 | 0.00 | 0.00 | 85 | 1015.4 |
| 20260510085509 | 11 | 271 | 8.0 | 12.9 | 0.00 | 0.00 | 0.00 | 85 | 1015.3 |
| 20260510085010 | 11 | 270 | 8.0 | 12.9 | 0.00 | 0.00 | 0.00 | 85 | 1015.2 |
| 20260510084509 | 11 | 277 | 6.4 | 12.9 | 0.00 | 0.00 | 0.00 | 85 | 1015.1 |
| 20260510084010 | 11 | 271 | 8.0 | 14.5 | 0.00 | 0.00 | 0.00 | 86 | 1015.1 |
| 20260510083513 | 10 | 281 | 9.7 | 14.5 | 0.00 | 0.00 | 0.00 | 87 | 1015.1 |
| 20260510083108 | 10 | 273 | 8.0 | 12.9 | 0.00 | 0.00 | 0.00 | 88 | 1015.1 |
| 20260510082508 | 10 | 268 | 9.7 | 14.5 | 0.00 | 0.00 | 0.00 | 91 | 1015.1 |
| 20260510082008 | 8 | 263 | 8.0 | 11.3 | 0.00 | 0.00 | 0.00 | 91 | 1015.1 |
| 20260510081507 | 8 | 261 | 3.2 | 9.7 | 0.00 | 0.00 | 0.00 | 88 | 1015.0 |
| 20260510081007 | 8 | 261 | 0.0 | 3.2 | 0.00 | 0.00 | 0.00 | 87 | 1015.0 |
| 20260510080507 | 9 | 261 | 1.6 | 4.8 | 0.00 | 0.00 | 0.00 | 86 | 1014.9 |
| 20260510080009 | 10 | 261 | 3.2 | 4.8 | 0.00 | 0.00 | 0.00 | 85 | 1015.0 |
| 20260510075505 | 10 | 261 | 1.6 | 9.7 | 0.00 | 0.00 | 0.00 | 84 | 1014.9 |
| 20260510075005 | 11 | 261 | 3.2 | 9.7 | 0.00 | 0.00 | 0.00 | 85 | 1014.8 |
| 20260510074506 | 11 | 261 | 4.8 | 9.7 | 0.00 | 0.00 | 0.00 | 84 | 1014.8 |
| 20260510074006 | 11 | 261 | 3.2 | 9.7 | 0.00 | 0.00 | 0.00 | 82 | 1014.8 |
| 20260510073504 | 11 | 261 | 3.2 | 11.3 | 0.00 | 0.00 | 0.00 | 82 | 1014.7 |
| 20260510073008 | 11 | 261 | 4.8 | 14.5 | 0.00 | 0.00 | 0.00 | 82 | 1014.8 |
| 20260510072504 | 11 | 265 | 9.7 | 14.5 | 0.00 | 0.00 | 0.00 | 84 | 1014.7 |
| 20260510072006 | 11 | 265 | 6.4 | 12.9 | 0.00 | 0.00 | 0.00 | 85 | 1014.7 |
| 20260510071506 | 10 | 267 | 6.4 | 12.9 | 0.00 | 0.00 | 0.00 | 87 | 1014.7 |
| 20260510071002 | 10 | 263 | 8.0 | 12.9 | 0.00 | 0.00 | 0.00 | 87 | 1014.8 |
| 20260510070503 | 10 | 258 | 6.4 | 11.3 | 0.00 | 0.00 | 0.00 | 85 | 1014.7 |
| 20260510070004 | 10 | 261 | 6.4 | 9.7 | 0.00 | 0.00 | 0.00 | 83 | 1014.8 |
| 20260510065501 | 11 | 263 | 4.8 | 11.3 | 0.00 | 0.00 | 0.00 | 81 | 1014.8 |
| 20260510065101 | 11 | 263 | 6.4 | 11.3 | 0.00 | 0.00 | 0.00 | 83 | 1014.9 |
| 20260510064637 | 11 | 263 | 6.4 | 11.3 | 0.00 | 0.00 | 0.00 | 85 | 1014.9 |
| 20260510064057 | 10 | 264 | 6.4 | 11.3 | 0.00 | 0.00 | 0.00 | 88 | 1014.8 |
| 20260510063558 | 9 | 257 | 4.8 | 9.7 | 0.00 | 0.00 | 0.00 | 89 | 1014.9 |
| 20260510063057 | 9 | 246 | 3.2 | 8.0 | 0.00 | 0.00 | 0.00 | 89 | 1015.0 |
| 20260510062556 | 9 | 246 | 4.8 | 8.0 | 0.00 | 0.00 | 0.00 | 89 | 1015.0 |
| 20260510062056 | 9 | 246 | 4.8 | 8.0 | 0.00 | 0.00 | 0.00 | 88 | 1015.0 |
| 20260510061556 | 9 | 247 | 6.4 | 12.9 | 0.00 | 0.00 | 0.00 | 88 | 1015.1 |
| 20260510061118 | 9 | 247 | 4.8 | 8.0 | 0.00 | 0.00 | 0.00 | 89 | 1015.0 |
| 20260510055550 | 8 | 241 | 4.8 | 6.4 | 0.00 | 0.00 | 0.00 | 90 | 1015.0 |
| 20260510055050 | 8 | 241 | 3.2 | 6.4 | 0.00 | 0.00 | 0.00 | 89 | 1015.0 |
| 20260510054550 | 8 | 241 | 3.2 | 8.0 | 0.00 | 0.00 | 0.00 | 90 | 1015.1 |
| 20260510054050 | 8 | 241 | 4.8 | 11.3 | 0.00 | 0.00 | 0.00 | 90 | 1015.1 |
| 20260510053549 | 8 | 241 | 6.4 | 11.3 | 0.00 | 0.00 | 0.00 | 90 | 1015.0 |
| 20260510053049 | 8 | 250 | 4.8 | 8.0 | 0.00 | 0.00 | 0.00 | 90 | 1015.0 |
| 20260510052547 | 8 | 255 | 4.8 | 6.4 | 0.00 | 0.00 | 0.00 | 90 | 1015.1 |
| 20260510052047 | 8 | 255 | 3.2 | 4.8 | 0.00 | 0.00 | 0.00 | 90 | 1015.1 |
| 20260510051551 | 8 | 255 | 1.6 | 4.8 | 0.00 | 0.00 | 0.00 | 89 | 1015.0 |
| 20260510051044 | 8 | 255 | 0.0 | 1.6 | 0.00 | 0.00 | 0.00 | 89 | 1015.1 |
| 20260510050545 | 8 | 255 | 0.0 | 1.6 | 0.00 | 0.00 | 0.00 | 89 | 1015.2 |
| 20260510050044 | 8 | 255 | 0.0 | 3.2 | 0.00 | 0.00 | 0.00 | 88 | 1015.1 |
| 20260510045544 | 9 | 255 | 0.0 | 1.6 | 0.00 | 0.00 | 0.00 | 87 | 1015.2 |
| 20260510045040 | 9 | 255 | 0.0 | 0.0 | 0.00 | 0.00 | 0.00 | 86 | 1015.1 |
| 20260510044539 | 10 | 255 | 0.0 | 4.8 | 0.00 | 0.00 | 0.00 | 86 | 1015.0 |
| 20260510044039 | 10 | 255 | 0.0 | 6.4 | 0.00 | 0.00 | 0.00 | 86 | 1015.0 |
| 20260510043538 | 10 | 255 | 3.2 | 6.4 | 0.00 | 0.00 | 0.00 | 86 | 1015.0 |
| 20260510043039 | 10 | 255 | 3.2 | 6.4 | 0.00 | 0.00 | 0.00 | 85 | 1014.9 |
| 20260510042539 | 10 | 255 | 3.2 | 4.8 | 0.00 | 0.00 | 0.00 | 85 | 1015.0 |
| 20260510042036 | 10 | 255 | 1.6 | 4.8 | 0.00 | 0.00 | 0.00 | 85 | 1014.9 |
| 20260510041535 | 10 | 255 | 1.6 | 4.8 | 0.00 | 0.00 | 0.00 | 85 | 1014.8 |
| 20260510041035 | 10 | 255 | 0.0 | 4.8 | 0.00 | 0.00 | 0.00 | 85 | 1014.9 |
| 20260510040534 | 10 | 255 | 0.0 | 6.4 | 0.00 | 0.00 | 0.00 | 84 | 1014.8 |
| 20260510040041 | 10 | 255 | 1.6 | 6.4 | 0.00 | 0.00 | 0.00 | 84 | 1014.8 |
| 20260510035531 | 10 | 255 | 0.0 | 3.2 | 0.00 | 0.00 | 0.00 | 84 | 1014.9 |
| 20260510035031 | 10 | 255 | 0.0 | 6.4 | 0.00 | 0.00 | 0.00 | 84 | 1014.9 |
| 20260510034531 | 10 | 255 | 1.6 | 8.0 | 0.00 | 0.00 | 0.00 | 84 | 1015.0 |
| 20260510034031 | 10 | 255 | 4.8 | 8.0 | 0.00 | 0.00 | 0.00 | 84 | 1014.9 |
| 20260510033534 | 10 | 255 | 3.2 | 4.8 | 0.00 | 0.00 | 0.00 | 84 | 1015.0 |
| 20260510033030 | 10 | 255 | 3.2 | 4.8 | 0.00 | 0.00 | 0.00 | 83 | 1014.9 |
| 20260510032530 | 11 | 255 | 1.6 | 4.8 | 0.00 | 0.00 | 0.00 | 83 | 1014.9 |
| 20260510032031 | 11 | 255 | 1.6 | 6.4 | 0.00 | 0.00 | 0.00 | 82 | 1014.8 |
| 20260510031532 | 11 | 255 | 3.2 | 6.4 | 0.00 | 0.00 | 0.00 | 82 | 1014.7 |
| 20260510031030 | 11 | 255 | 3.2 | 6.4 | 0.00 | 0.00 | 0.00 | 81 | 1014.8 |
| 20260510030530 | 11 | 255 | 3.2 | 8.0 | 0.00 | 0.00 | 0.00 | 80 | 1014.7 |
| 20260510030030 | 11 | 255 | 4.8 | 8.0 | 0.00 | 0.00 | 0.00 | 80 | 1014.6 |
| 20260510025529 | 12 | 255 | 4.8 | 8.0 | 0.00 | 0.00 | 0.00 | 78 | 1014.5 |
| 20260510025029 | 12 | 255 | 4.8 | 9.7 | 0.00 | 0.00 | 0.00 | 77 | 1014.5 |
| 20260510024531 | 12 | 279 | 3.2 | 6.4 | 0.00 | 0.00 | 0.00 | 75 | 1014.3 |
| 20260510024032 | 13 | 286 | 0.0 | 4.8 | 0.00 | 0.00 | 0.00 | 73 | 1014.3 |
| 20260510023529 | 14 | 286 | 1.6 | 6.4 | 0.00 | 0.00 | 0.00 | 70 | 1014.3 |
| 20260510023029 | 14 | 286 | 3.2 | 8.0 | 0.00 | 0.00 | 0.00 | 69 | 1014.3 |
| 20260510022529 | 14 | 286 | 3.2 | 8.0 | 0.00 | 0.00 | 0.00 | 69 | 1014.2 |
| 20260510022028 | 14 | 288 | 4.8 | 11.3 | 0.00 | 0.00 | 0.00 | 70 | 1014.2 |
| 20260510021532 | 13 | 286 | 6.4 | 11.3 | 0.00 | 0.00 | 0.00 | 72 | 1014.1 |
| 20260510021028 | 13 | 288 | 6.4 | 11.3 | 0.00 | 0.00 | 0.00 | 75 | 1014.1 |
| 20260510020528 | 12 | 292 | 6.4 | 8.0 | 0.00 | 0.00 | 0.00 | 77 | 1014.1 |
| 20260510020030 | 12 | 304 | 3.2 | 6.4 | 0.00 | 0.00 | 0.00 | 77 | 1014.1 |
| 20260510015528 | 12 | 304 | 3.2 | 4.8 | 0.00 | 0.00 | 0.00 | 77 | 1014.1 |
| 20260510015026 | 12 | 304 | 3.2 | 6.4 | 0.00 | 0.00 | 0.00 | 77 | 1014.0 |
| 20260510014528 | 12 | 304 | 3.2 | 6.4 | 0.00 | 0.00 | 0.00 | 76 | 1013.9 |
| 20260510014027 | 12 | 304 | 3.2 | 6.4 | 0.00 | 0.00 | 0.00 | 75 | 1013.9 |
| 20260510013528 | 12 | 304 | 3.2 | 6.4 | 0.00 | 0.00 | 0.00 | 75 | 1013.8 |
| 20260510013027 | 12 | 304 | 1.6 | 4.8 | 0.00 | 0.00 | 0.00 | 75 | 1013.6 |
| 20260510012524 | 13 | 304 | 1.6 | 6.4 | 0.00 | 0.00 | 0.00 | 74 | 1013.5 |
| 20260510012028 | 13 | 304 | 3.2 | 6.4 | 0.00 | 0.00 | 0.00 | 74 | 1013.4 |
| 20260510011525 | 13 | 304 | 1.6 | 4.8 | 0.00 | 0.00 | 0.00 | 73 | 1013.3 |
| 20260510011027 | 13 | 304 | 1.6 | 4.8 | 0.00 | 0.00 | 0.00 | 73 | 1013.2 |
| 20260510010524 | 13 | 304 | 3.2 | 4.8 | 0.00 | 0.00 | 0.00 | 73 | 1013.1 |
| 20260510010024 | 13 | 304 | 1.6 | 4.8 | 0.00 | 0.00 | 0.00 | 73 | 1013.2 |
| 20260510005524 | 13 | 304 | 3.2 | 4.8 | 0.00 | 0.00 | 0.00 | 72 | 1013.0 |
| 20260510005024 | 13 | 304 | 1.6 | 6.4 | 0.00 | 0.00 | 0.00 | 72 | 1012.9 |
| 20260510004523 | 14 | 304 | 1.6 | 6.4 | 0.00 | 0.00 | 0.00 | 70 | 1012.9 |
| 20260510004023 | 14 | 304 | 1.6 | 6.4 | 0.00 | 0.00 | 0.00 | 69 | 1012.7 |
| 20260510003524 | 15 | 303 | 1.6 | 4.8 | 0.00 | 0.00 | 0.00 | 68 | 1012.7 |
| 20260510003023 | 15 | 303 | 3.2 | 6.4 | 0.00 | 0.00 | 0.00 | 67 | 1012.8 |
| 20260510002523 | 16 | 303 | 1.6 | 6.4 | 0.00 | 0.00 | 0.00 | 64 | 1012.6 |
| 20260510002022 | 16 | 304 | 1.6 | 6.4 | 0.00 | 0.00 | 0.00 | 62 | 1012.5 |
| 20260510001522 | 16 | 293 | 0.0 | 3.2 | 0.00 | 0.00 | 0.00 | 62 | 1012.5 |
| 20260510001023 | 17 | 317 | 0.0 | 8.0 | 0.00 | 0.00 | 0.00 | 60 | 1012.6 |
| 20260510000523 | 17 | 321 | 1.6 | 8.0 | 0.00 | 0.00 | 0.00 | 59 | 1012.6 |
| 20260510000022 | 17 | 329 | 1.6 | 8.0 | 0.00 | 0.00 | 0.00 | 59 | 1012.5 |
| 20260509235521 | 17 | 317 | 3.2 | 9.7 | 0.00 | 0.00 | 0.00 | 58 | 1012.5 |
| 20260509235022 | 17 | 315 | 3.2 | 14.5 | 0.00 | 0.00 | 0.00 | 57 | 1012.5 |
| 20260509234521 | 18 | 290 | 6.4 | 14.5 | 0.00 | 0.00 | 0.00 | 56 | 1012.4 |
| 20260509234021 | 18 | 307 | 6.4 | 12.9 | 0.00 | 0.00 | 0.00 | 56 | 1012.4 |
| 20260509233520 | 18 | 355 | 3.2 | 9.7 | 0.00 | 0.00 | 0.00 | 56 | 1012.5 |
| 20260509233021 | 18 | 335 | 4.8 | 9.7 | 0.00 | 0.00 | 0.00 | 55 | 1012.5 |
| 20260509232521 | 18 | 350 | 3.2 | 8.0 | 0.00 | 0.00 | 0.00 | 56 | 1012.6 |
| 20260509232020 | 18 | 294 | 1.6 | 11.3 | 0.00 | 0.00 | 0.00 | 56 | 1012.5 |
| 20260509231520 | 18 | 292 | 4.8 | 12.9 | 0.00 | 0.00 | 0.00 | 55 | 1012.5 |
| 20260509231019 | 18 | 279 | 6.4 | 17.7 | 0.00 | 0.00 | 0.00 | 54 | 1012.4 |
| 20260509230519 | 18 | 292 | 9.7 | 20.9 | 0.00 | 0.00 | 0.00 | 54 | 1012.3 |
| 20260509230019 | 19 | 252 | 9.7 | 20.9 | 0.00 | 0.00 | 0.00 | 52 | 1012.1 |
| 20260509225518 | 19 | 254 | 8.0 | 20.9 | 0.00 | 0.00 | 0.00 | 51 | 1012.1 |
| 20260509225019 | 19 | 308 | 9.7 | 22.5 | 0.00 | 0.00 | 0.00 | 53 | 1012.1 |
| 20260509224518 | 19 | 334 | 11.3 | 22.5 | 0.00 | 0.00 | 0.00 | 52 | 1012.1 |
| 20260509224018 | 19 | 327 | 11.3 | 19.3 | 0.00 | 0.00 | 0.00 | 52 | 1011.9 |
| 20260509223518 | 20 | 308 | 8.0 | 16.1 | 0.00 | 0.00 | 0.00 | 52 | 1011.9 |
| 20260509223018 | 20 | 295 | 8.0 | 19.3 | 0.00 | 0.00 | 0.00 | 52 | 1012.1 |
| 20260509222517 | 20 | 285 | 12.9 | 27.4 | 0.00 | 0.00 | 0.00 | 51 | 1012.1 |
| 20260509222017 | 19 | 266 | 14.5 | 27.4 | 0.00 | 0.00 | 0.00 | 51 | 1012.1 |
| 20260509221517 | 19 | 333 | 6.4 | 25.7 | 0.00 | 0.00 | 0.00 | 53 | 1011.9 |
| 20260509221017 | 20 | 313 | 14.5 | 27.4 | 0.00 | 0.00 | 0.00 | 52 | 1012.1 |